KI0IO-2 Weather Reports


time (UTC)temp
F
wind
direction
speed
knots
gust
knots
rain 1hr
in
rain 24hr
in
rain mn
in
humidity
%
barometer
mb
20260505184505 37 195 0.0 0.9 0.05 0.70 0.64 92 1012.8
20260505184006 36 195 0.0 1.7 0.06 0.70 0.64 92 1012.7
20260505183005 36 195 0.0 2.6 0.06 0.69 0.63 92 1012.4
20260505182005 36 224 0.0 2.6 0.06 0.68 0.62 92 1012.5
20260505181505 36 227 0.9 1.7 0.06 0.67 0.61 92 1012.6
20260505180005 36 232 0.0 1.7 0.07 0.66 0.60 92 1012.7
20260505175505 36 232 0.0 1.7 0.08 0.66 0.60 92 1012.7
20260505174505 36 232 0.0 2.6 0.08 0.65 0.59 92 1012.6
20260505172506 36 233 0.0 2.6 0.09 0.62 0.56 92 1012.3
20260505172005 36 233 0.9 2.6 0.10 0.62 0.56 92 1012.6
20260505171005 36 165 1.7 4.3 0.11 0.61 0.55 93 1012.9
20260505170505 36 311 0.0 4.3 0.11 0.60 0.54 93 1012.8
20260505170005 36 311 0.9 4.3 0.11 0.59 0.53 93 1012.7
20260505165006 36 315 0.0 0.9 0.11 0.57 0.51 93 1012.5
20260505164504 35 315 0.0 0.9 0.12 0.57 0.51 93 1012.5
20260505164005 35 315 0.0 0.9 0.12 0.56 0.50 93 1012.4
20260505163505 35 315 0.0 1.7 0.12 0.55 0.49 93 1012.4
20260505163005 35 315 0.0 1.7 0.12 0.54 0.48 93 1012.4
20260505162506 35 315 0.0 0.9 0.12 0.53 0.47 93 1012.5
20260505162005 35 315 0.0 0.0 0.12 0.52 0.46 93 1012.4
20260505161005 35 315 0.0 0.9 0.12 0.50 0.44 93 1012.4
20260505160505 35 315 0.0 0.0 0.12 0.49 0.43 93 1012.6
20260505153005 34 315 0.9 2.6 0.08 0.43 0.37 93 1012.5
20260505152504 34 315 0.0 0.9 0.07 0.42 0.36 93 1012.5
20260505151504 34 315 0.0 0.9 0.05 0.40 0.34 93 1012.5
20260505151004 34 315 0.0 0.9 0.04 0.39 0.33 93 1012.5
20260505150505 34 315 0.0 0.9 0.03 0.38 0.32 93 1012.5
20260505140504 33 315 0.0 0.0 0.01 0.35 0.29 93 1012.2
20260505124004 33 315 0.0 0.9 0.02 0.34 0.28 92 1011.1
20260505123505 33 315 0.0 1.7 0.02 0.34 0.28 92 1011.1
20260505123004 33 315 0.0 1.7 0.03 0.34 0.28 92 1011.1
20260505122504 33 315 0.0 2.6 0.03 0.34 0.28 92 1011.0
20260505122004 33 315 0.9 2.6 0.03 0.34 0.28 92 1011.0
20260505121505 33 315 0.9 2.6 0.03 0.34 0.28 91 1010.9
20260505121005 34 315 0.0 4.3 0.03 0.34 0.28 91 1010.8
20260505120006 34 315 2.6 6.1 0.04 0.34 0.28 92 1010.9
20260505115504 34 315 2.6 5.2 0.03 0.33 0.27 92 1010.8
20260505114504 35 318 4.3 6.1 0.03 0.32 0.26 92 1010.7
20260505114005 35 318 2.6 6.1 0.03 0.32 0.26 92 1010.7
20260505113504 35 316 2.6 5.2 0.04 0.32 0.26 92 1010.5
20260505113005 35 320 1.7 5.2 0.03 0.31 0.25 92 1010.4
20260505112504 35 320 1.7 6.1 0.03 0.31 0.25 92 1010.3
20260505112007 35 320 2.6 7.0 0.04 0.31 0.25 92 1010.2
20260505111506 35 317 2.6 7.0 0.04 0.31 0.25 92 1010.0
20260505110507 35 352 2.6 6.1 0.04 0.30 0.24 92 1009.8
20260505102007 36 26 0.9 8.7 0.05 0.27 0.21 90 1009.5
20260505101506 36 52 4.3 8.7 0.05 0.27 0.21 90 1009.4
20260505100507 37 16 4.3 10.4 0.06 0.26 0.20 90 1009.2
20260505100004 37 23 5.2 10.4 0.05 0.25 0.19 90 1009.2
20260505095007 38 17 3.5 11.3 0.05 0.24 0.18 90 1009.1
20260505094506 38 17 5.2 13.0 0.05 0.24 0.18 90 1008.9
20260505094006 38 41 4.3 17.4 0.04 0.23 0.17 90 1008.9
20260505093506 38 56 7.8 17.4 0.05 0.23 0.17 89 1008.9
20260505093006 39 50 7.0 13.0 0.06 0.23 0.17 90 1008.8
20260505092507 39 53 5.2 11.3 0.06 0.23 0.17 90 1008.6
20260505091506 40 325 2.6 7.8 0.06 0.22 0.16 90 1008.5
20260505091006 40 338 1.7 7.8 0.07 0.21 0.15 90 1008.4
20260505090506 40 337 1.7 8.7 0.08 0.21 0.15 90 1008.3
20260505090006 41 325 1.7 8.7 0.08 0.20 0.14 89 1008.4
20260505085506 41 336 2.6 10.4 0.08 0.20 0.14 89 1008.5
20260505085006 41 16 2.6 10.4 0.07 0.19 0.13 89 1008.5
20260505084506 41 49 4.3 10.4 0.07 0.19 0.13 89 1008.5
20260505084006 41 355 0.9 6.1 0.07 0.19 0.13 89 1008.3
20260505083007 42 343 1.7 6.1 0.06 0.17 0.11 89 1008.3
20260505082506 42 53 0.9 6.1 0.06 0.17 0.11 89 1008.2
20260505082006 42 8 0.9 6.1 0.06 0.17 0.11 89 1008.2
20260505081005 42 297 1.7 6.1 0.04 0.14 0.08 88 1008.1
20260505080506 42 332 1.7 6.1 0.03 0.13 0.07 88 1008.1
20260505080007 42 336 1.7 7.8 0.02 0.12 0.06 88 1008.1
20260505075506 42 332 2.6 8.7 0.02 0.12 0.06 88 1008.1
20260505075007 42 317 4.3 8.7 0.02 0.12 0.06 87 1008.1
20260505074505 42 326 4.3 10.4 0.03 0.12 0.06 87 1008.1
20260505074006 42 327 3.5 10.4 0.03 0.12 0.06 87 1008.1
20260505073505 42 15 4.3 7.8 0.04 0.12 0.06 87 1008.0
20260505073006 43 320 2.6 10.4 0.04 0.11 0.05 86 1008.1
20260505072507 43 324 2.6 10.4 0.05 0.11 0.05 86 1008.0
20260505072005 43 331 5.2 12.2 0.05 0.11 0.05 86 1008.0
20260505071506 43 332 2.6 12.2 0.05 0.11 0.05 85 1007.8
20260505070506 43 336 0.9 10.4 0.04 0.10 0.04 85 1007.9
20260505070005 43 11 1.7 10.4 0.04 0.10 0.04 84 1007.8
20260505065506 44 338 3.5 10.4 0.04 0.10 0.04 84 1007.9
20260505064505 44 344 4.3 13.0 0.03 0.09 0.03 83 1007.8
20260505064007 44 320 5.2 13.0 0.03 0.09 0.03 82 1007.8
20260505063506 45 316 3.5 10.4 0.02 0.08 0.02 81 1007.7
20260505062506 46 330 4.3 10.4 0.00 0.06 0.00 78 1007.6
20260505062005 46 35 4.3 11.3 0.00 0.06 0.00 78 1007.5
20260505060506 48 339 4.3 10.4 0.00 0.06 0.00 83 1007.1
20260505055506 48 244 0.0 0.9 0.00 0.06 0.06 84 1007.0
20260505055005 48 244 0.0 0.9 0.00 0.06 0.06 84 1006.8
20260505054507 48 244 0.0 0.9 0.00 0.06 0.06 84 1006.6
20260505054006 48 244 0.0 0.0 0.00 0.06 0.06 84 1006.4
20260505053505 48 244 0.0 0.0 0.00 0.06 0.06 84 1006.2
20260505053006 48 244 0.0 0.0 0.00 0.06 0.06 83 1006.2
20260505052506 48 244 0.0 0.0 0.00 0.06 0.06 82 1006.1
20260505052006 48 244 0.0 0.0 0.00 0.06 0.06 82 1006.0
20260505051506 48 244 0.0 0.0 0.00 0.06 0.06 81 1005.9
20260505050506 48 244 0.0 0.0 0.00 0.06 0.06 80 1005.8
20260505041505 49 244 2.6 5.2 0.00 0.06 0.06 78 1005.6
20260505041005 49 244 1.7 6.1 0.00 0.06 0.06 78 1005.5
20260505040506 50 244 1.7 6.1 0.00 0.06 0.06 78 1005.5
20260505040005 50 244 2.6 6.1 0.00 0.06 0.06 78 1005.4
20260505035506 50 244 1.7 4.3 0.00 0.06 0.06 78 1005.4
20260505035005 50 244 1.7 4.3 0.00 0.06 0.06 79 1005.4
20260505034505 50 244 0.9 7.0 0.00 0.06 0.06 79 1005.4
20260505034006 50 244 2.6 7.0 0.00 0.06 0.06 79 1005.4
20260505033506 50 254 2.6 6.1 0.00 0.06 0.06 80 1005.4
20260505033005 50 281 0.9 2.6 0.00 0.06 0.06 79 1005.3
20260505032506 50 282 0.0 0.0 0.00 0.06 0.06 79 1005.4
20260505032006 50 282 0.0 2.6 0.00 0.06 0.06 79 1005.2
20260505030505 49 282 0.9 2.6 0.00 0.06 0.06 82 1005.2
20260505030005 49 282 0.9 2.6 0.00 0.06 0.06 83 1005.1
20260505025505 49 282 0.9 2.6 0.00 0.06 0.06 83 1004.9
20260505025005 49 282 0.9 2.6 0.00 0.06 0.06 84 1004.7
20260505024505 49 282 0.0 1.7 0.00 0.06 0.06 84 1004.5
20260505024005 49 282 0.0 1.7 0.00 0.06 0.06 84 1004.3
20260505023505 49 282 0.0 2.6 0.00 0.06 0.06 83 1004.3
20260505022505 49 282 0.9 4.3 0.01 0.06 0.06 83 1004.1
20260505022005 50 282 0.9 4.3 0.01 0.06 0.06 82 1004.0
20260505021506 50 282 0.0 5.2 0.01 0.06 0.06 81 1003.8
20260505021005 50 282 1.7 5.2 0.02 0.06 0.06 81 1003.8
20260505020505 50 278 1.7 8.7 0.02 0.06 0.06 80 1003.6
20260505020005 50 284 2.6 8.7 0.02 0.06 0.06 80 1003.7
20260505015505 50 294 4.3 8.7 0.02 0.06 0.06 81 1003.9
20260505015006 49 273 5.2 8.7 0.02 0.06 0.06 82 1003.9
20260505013505 49 200 2.6 7.8 0.03 0.06 0.06 81 1003.7
20260505013005 50 215 3.5 7.8 0.03 0.06 0.06 81 1003.8
20260505012505 49 217 4.3 8.7 0.02 0.05 0.05 81 1003.9
20260505012006 49 217 5.2 8.7 0.02 0.05 0.05 81 1003.8
20260505011505 50 232 2.6 11.3 0.02 0.05 0.05 81 1003.9
20260505011005 50 251 3.5 11.3 0.02 0.05 0.05 80 1004.0
20260505010505 50 272 7.0 11.3 0.01 0.04 0.04 79 1004.1
20260505005505 51 294 6.1 10.4 0.01 0.04 0.04 79 1004.0
20260505005005 51 289 6.1 10.4 0.01 0.04 0.04 78 1004.0
20260505004505 51 285 5.2 13.0 0.01 0.04 0.04 77 1003.9
20260505004005 51 295 6.1 13.9 0.00 0.03 0.03 76 1003.8
20260505003505 52 299 7.0 13.9 0.00 0.03 0.03 75 1003.9
20260505003005 53 308 7.0 13.9 0.00 0.03 0.03 73 1003.7
20260505002505 53 313 6.1 11.3 0.01 0.03 0.03 72 1003.7
20260505002006 53 316 3.5 10.4 0.02 0.03 0.03 72 1003.7
20260505001505 53 299 5.2 10.4 0.02 0.03 0.03 72 1003.5
20260505001005 53 307 4.3 10.4 0.03 0.03 0.03 73 1003.4
20260505000505 54 306 3.5 7.8 0.03 0.03 0.03 74 1003.4
20260505000006 53 287 4.3 7.0 0.03 0.03 0.03 75 1003.4
20260504235506 54 261 0.0 2.6 0.03 0.03 0.03 77 1003.2
20260504235005 54 261 0.0 0.9 0.03 0.03 0.03 75 1003.1
20260504234505 54 261 0.0 0.9 0.03 0.03 0.03 71 1003.2
20260504234006 54 261 0.0 2.6 0.03 0.03 0.03 71 1003.2
20260504233505 54 261 0.0 2.6 0.03 0.03 0.03 71 1003.2
20260504233005 55 261 0.0 8.7 0.03 0.03 0.03 66 1003.2
20260504232505 55 261 0.9 10.4 0.02 0.02 0.02 64 1003.4
20260504232006 56 275 7.0 17.4 0.01 0.01 0.01 59 1003.3
20260504231505 57 260 8.7 17.4 0.01 0.01 0.01 59 1003.3
20260504231005 60 258 9.6 17.4 0.00 0.00 0.00 50 1003.0
20260504230505 61 258 6.1 11.3 0.00 0.00 0.00 45 1002.6
20260504230005 60 284 5.2 11.3 0.00 0.00 0.00 44 1002.4
20260504225505 60 293 6.1 11.3 0.00 0.00 0.00 45 1002.1
20260504225005 60 285 4.3 11.3 0.00 0.00 0.00 45 1002.1
20260504224505 61 289 6.1 12.2 0.00 0.00 0.00 44 1001.9
20260504224005 61 302 5.2 15.6 0.00 0.00 0.00 44 1001.7
20260504223505 61 304 7.8 15.6 0.00 0.00 0.00 43 1001.7
20260504222505 63 304 6.1 13.9 0.00 0.00 0.00 41 1001.7
20260504222005 63 324 4.3 13.9 0.00 0.00 0.00 41 1001.6
20260504221005 64 349 4.3 8.7 0.00 0.00 0.00 42 1001.5
20260504220505 63 42 4.3 8.7 0.00 0.00 0.00 42 1001.6
20260504220005 64 55 5.2 8.7 0.00 0.00 0.00 41 1001.7
20260504215505 63 338 1.7 7.8 0.00 0.00 0.00 41 1001.8
20260504215005 64 7 5.2 7.8 0.00 0.00 0.00 40 1001.9
20260504214005 63 26 1.7 4.3 0.00 0.00 0.00 41 1002.1
20260504213005 62 35 0.9 6.1 0.00 0.00 0.00 42 1002.0
20260504212505 62 61 1.7 6.1 0.00 0.00 0.00 41 1001.8
20260504212006 62 5 0.9 4.3 0.00 0.00 0.00 43 1002.0
20260504211505 62 21 0.9 6.1 0.00 0.00 0.00 43 1002.1
20260504210005 62 327 4.3 17.4 0.00 0.00 0.00 43 1002.2
20260504205504 62 345 5.2 17.4 0.00 0.00 0.00 42 1002.2
20260504205005 63 31 5.2 18.2 0.00 0.00 0.00 42 1002.1
20260504204005 63 341 6.1 21.7 0.00 0.00 0.00 40 1001.8
20260504203506 64 3 6.1 21.7 0.00 0.00 0.00 38 1001.6
20260504203005 64 348 4.3 17.4 0.00 0.00 0.00 37 1001.4
20260504202505 64 357 7.0 17.4 0.00 0.00 0.00 37 1001.2
20260504202005 64 48 8.7 17.4 0.00 0.00 0.00 37 1001.1
20260504201505 62 26 8.7 17.4 0.00 0.00 0.00 39 1001.2
20260504201005 62 35 5.2 20.9 0.00 0.00 0.00 40 1001.3
20260504200505 62 34 8.7 25.2 0.00 0.00 0.00 38 1001.3
20260504200005 63 43 12.2 25.2 0.00 0.00 0.00 37 1001.2
20260504195504 64 44 8.7 19.1 0.00 0.00 0.00 35 1001.1
20260504195006 65 34 6.1 17.4 0.00 0.00 0.00 33 1001.1
20260504194506 67 2 4.3 17.4 0.00 0.00 0.00 28 1001.1
20260504194004 67 24 5.2 22.6 0.00 0.00 0.00 25 1000.7
20260504193504 67 33 11.3 22.6 0.00 0.00 0.00 25 1001.0
20260504193004 67 336 7.0 20.0 0.00 0.00 0.00 24 1000.7
20260504192504 67 340 9.6 20.0 0.00 0.00 0.00 24 1000.7
20260504192004 67 326 8.7 18.2 0.00 0.00 0.00 24 1000.8
20260504191505 67 292 5.2 20.9 0.00 0.00 0.00 29 1000.7
20260504191006 67 277 10.4 22.6 0.00 0.00 0.00 29 1000.8
20260504185504 68 285 11.3 19.1 0.00 0.00 0.00 28 1000.8